Location: Tamazert
(32.6352°N, 5.2072°W)
Time: 01:40:01
(UTC+00:00)

Vanguard 1 Rocket - Pass Details

Date: 13 October 2022
Orbit: 650 x 4225 km, 34.3° (Epoch: 05 December)

Event Time Altitude Azimuth Distance (km) Brightness Sun altitude
Rises 18:34:35 0° 260° (W) 8,375 14.5 -10.1°
Reaches altitude 10° 18:40:21 10° 261° (W) 7,424 13.6 -11.3°
Maximum altitude 19:06:43 87° 352° (N) 3,474 10.2 -16.8°
Enters shadow 19:19:15 24° 82° (E) 4,226 10.1 -19.5°
